Location: *
(40.4000°N, 15.1200°E)
Time: 04:41:55
(UTC+00:00)

Cosmos 2058 Rocket - Pass Details

Date: 09 April 2020
Orbit: 610 x 639 km, 82.5° (Epoch: 05 June)

Event Time Altitude Azimuth Distance (km) Brightness Sun altitude
Rises 18:50:53 0° 187° (S) 2,927 6.3 -15.0°
Reaches altitude 10° 18:53:07 10° 188° (S) 2,023 5.5 -15.4°
Maximum altitude 18:57:37 85° 276° (W) 647 3.1 -16.1°
Drops below altitude 10° 19:02:09 10° 7° (N) 2,035 6.0 -16.9°
Sets 19:04:24 0° 8° (N) 2,945 6.8 -17.3°
